[[{"header":{"parameterUnit":"m.s-1","parameterCategory":1,"la1":30.2991,"la2":30.254,"lo1":-89.0895,"lo2":-89.0444,"dy":0.0017,"dx":0.0017,"nx":28,"ny":28,"refTime":"2025-06-02T09:00:00:Z","depth":0,"parameterNumber":2,"parameterNumberName":"U-component_of_WINDS"},"data":[0,0,0,0,0,0,0,0,0,0,0,0,0,0,0,0,0,0,0,0,0,0,0,0,0,0,0,0,0,0,0,0,0,0,0,0,0,0,0,0,0,0,0,0,0,0,0,0,0,0,0,0,0,0,0,0,0,0,-4.1318,-4.1319,0,-4.1416,-4.1417,-4.1418,-4.1386,-4.1384,-4.1382,-4.138,-4.148,-4.1485,-4.1489,0,0,0,0,0,0,0,0,0,0,0,0,0,-4.1101,-4.1105,-4.1318,-4.1319,-4.132,-4.1416,-4.1417,-4.1419,-4.1386,-4.1384,-4.1381,-4.1379,-4.1479,-4.1484,-4.149,0,0,0,0,0,0,0,0,0,0,0,0,0,-4.1197,-4.1107,-4.1318,-4.1316,-4.1317,-4.1416,-4.1417,-4.1419,-4.1387,-4.1384,-4.1381,-4.1378,-4.1477,-4.1484,-4.1491,-4.1598,0,0,-4.1512,-4.1515,0,0,0,0,0,0,0,0,-4.1192,-4.1205,-4.1315,-4.1316,-4.1317,-4.1386,-4.1378,-4.1479,-4.1388,-4.136,-4.138,-4.1376,-4.1451,-4.146,-4.1486,-4.1602,-4.1607,-4.1513,-4.1517,-4.152,-4.1522,0,0,0,0,0,0,0,-4.1185,-4.1201,-4.1357,-4.1316,-4.1318,-4.131,-4.132,-4.1397,-4.1422,-4.1362,-4.136,-4.1372,-4.1451,-4.1479,-4.1488,-4.1608,-4.1512,-4.1519,-4.1523,-4.1526,-4.1815,-4.1819,0,0,0,0,0,0,-4.1178,-4.1195,-4.1354,-4.136,-4.1245,-4.1316,-4.1327,-4.1367,-4.1422,-4.1427,-4.1375,-4.137,-4.1469,-4.148,-4.1491,-4.1618,-4.152,-4.1526,-4.153,-4.1812,-4.1816,-4.182,0,0,0,0,0,0,-4.1173,-4.1192,-4.135,-4.1277,-4.1296,-4.1323,-4.1368,-4.137,-4.1398,-4.1431,-4.1435,-4.1399,-4.1467,-4.1481,-4.1571,-4.1621,-4.1529,-4.1536,-4.1808,-4.1813,-4.1818,-4.1874,0,0,0,0,0,0,-4.1167,-4.1191,-4.1232,-4.1278,-4.13,-4.1428,-4.1371,-4.1375,-4.141,-4.1405,-4.1454,-4.1459,-4.1465,-4.1561,-4.1578,-4.1629,-4.1541,-4.1803,-4.181,-4.1816,-4.1868,-4.1881,-4.1892,0,0,0,0,0,-4.116,-4.1244,-4.1234,-4.1254,-4.1352,-4.1431,-4.1444,-4.1449,-4.1414,-4.1456,-4.1477,-4.1458,-4.1614,-4.157,-4.1589,-4.1644,-4.18,-4.1808,-4.1816,-4.1863,-4.1878,-4.1892,0,0,0,0,0,0,-4.1204,-4.125,-4.124,-4.1342,-4.1383,-4.1426,-4.1478,-4.1466,-4.1517,-4.151,-4.1514,-4.1526,-4.1617,-4.164,-4.159,-4.1749,-4.1702,-4.1714,-4.1731,-4.1746,-4.1758,-4.1749,-4.1547,0,0,0,0,0,-4.1225,-4.1285,-4.1323,-4.141,-4.1431,-4.1451,-4.1485,-4.1486,-4.1528,-4.1545,-4.1573,-4.1615,-4.1672,-4.1711,-4.1766,-4.1872,-4.1881,-4.1919,-4.193,-4.194,-4.195,-4.2006,-4.2022,-4.1846,-4.1846,-4.1846,0,0,-4.127,-4.1303,-4.1341,-4.1419,-4.1451,-4.1512,-4.1466,-4.1533,-4.1579,-4.1555,-4.1641,-4.1663,-4.171,-4.1807,-4.1852,-4.1829,-4.2001,-4.195,-4.1958,-4.1962,-4.2015,-4.2032,-4.2047,-4.1851,-4.185,-4.1849,0,0,-4.1384,-4.1416,-4.149,-4.1523,-4.1571,-4.1584,-4.1602,-4.1647,-4.166,-4.1746,-4.173,-4.1784,-4.1884,-4.1918,-4.1948,-4.2073,-4.2057,-4.2092,-4.2153,-4.2207,-4.2221,-4.2233,-4.2276,-4.2292,-4.2102,-4.2102,-4.2102,0,-4.1434,-4.1526,-4.153,-4.1599,-4.1633,-4.1615,-4.169,-4.1721,-4.1786,-4.1809,-4.1783,-4.1908,-4.1938,-4.2042,-4.2073,-4.2099,-4.2118,-4.2085,-4.2219,-4.2231,-4.2243,-4.2284,-4.23,-4.2105,-4.2105,-4.2105,-4.2104,0,-4.1584,-4.1648,-4.1703,-4.1765,-4.1805,-4.1877,-4.1891,-4.1932,-4.1929,-4.1944,-4.2031,-4.2067,-4.2129,-4.2154,-4.2152,-4.2258,-4.2242,-4.2217,-4.2169,-4.2263,-4.2301,-4.2317,-4.2111,-4.2109,-4.2108,-4.2107,0,0,-4.1728,-4.179,-4.181,-4.1837,-4.1889,-4.1938,-4.2009,-4.2069,-4.2103,-4.2148,-4.2206,-4.2291,-4.2268,-4.2303,-4.2304,-4.2352,-4.2447,-4.2322,-4.2323,-4.2342,-4.2564,-4.258,-4.2598,-4.2437,-4.244,-4.2443,-4.2559,0,-4.1844,-4.1967,-4.1972,-4.2085,-4.2143,-4.2127,-4.2188,-4.2226,-4.2242,-4.2294,-4.2312,-4.2371,-4.2338,-4.2358,-4.2405,-4.2425,-4.2491,-4.2417,-4.249,-4.2493,-4.2477,-4.2619,-4.2637,-4.2745,-4.2574,-4.2577,-4.2579,0,-4.1996,-4.2044,-4.2162,-4.2204,-4.2229,-4.2284,-4.2338,-4.2389,-4.2431,-4.2439,-4.2477,-4.2472,-4.2543,-4.2494,-4.2591,-4.2541,-4.2571,-4.2586,-4.259,-4.2596,-4.254,-4.2626,-4.278,-4.2795,-4.2603,-4.2601,-4.2599,0,-4.2086,-4.2181,-4.2264,-4.2288,-4.2339,-4.2378,-4.2401,-4.2441,-4.2476,-4.2524,-4.2546,-4.2602,-4.2633,-4.2676,-4.2685,-4.2649,-4.2782,-4.2734,-4.279,-4.279,-4.2817,-4.2815,-4.2976,-4.284,-4.284,-4.284,-4.2839,0,-4.2214,-4.2287,-4.2305,-4.2355,-4.2435,-4.2441,-4.252,-4.254,-4.2575,-4.2629,-4.2619,-4.2669,-4.2679,-4.2732,-4.274,-4.2818,-4.2833,-4.284,-4.2841,-4.284,-4.2839,-4.2859,-4.2851,-4.2844,-4.2843,-4.2842,-4.2841,0,-4.2328,-4.2344,-4.2432,-4.2473,-4.2485,-4.2542,-4.2577,-4.2625,-4.264,-4.2708,-4.2724,-4.2748,-4.2809,-4.2823,-4.2896,-4.2901,-4.2993,-4.2988,-4.2979,-4.2978,-4.3032,-4.3026,-4.321,-4.3233,-4.3084,-4.3085,-4.3086,0,-4.2408,-4.2463,-4.251,-4.2545,-4.257,-4.2627,-4.2662,-4.267,-4.2707,-4.2759,-4.2801,-4.2861,-4.2909,-4.3007,-4.3031,-4.3086,-4.3081,-4.3141,-4.3089,-4.3086,-4.3079,-4.3075,-4.308,-4.3151,-4.3152,-4.3153,-4.3155,0,-4.2548,-4.2552,-4.2604,-4.2659,-4.2701,-4.2744,-4.2786,-4.2815,-4.2828,-4.287,-4.2932,-4.297,-4.3044,-4.3103,-4.3158,-4.3182,-4.317,-4.3171,-4.3186,-4.3185,-4.3177,-4.318,-4.3004,-4.3166,-4.3165,-4.3164,-4.3164,-4.3163,-4.2646,-4.2694,-4.2734,-4.2791,-4.2823,-4.2861,-4.2908,-4.2928,-4.298,-4.304,-4.3042,-4.3109,-4.3149,-4.3222,-4.3249,-4.3301,-4.3282,-4.3305,-4.3311,-4.3316,-4.332,-4.317,-4.3312,-4.3311,-4.3311,-4.3311,-4.3311,0,-4.2784,-4.2809,-4.2862,-4.2919,-4.2964,-4.2949,-4.2994,-4.3032,-4.3091,-4.313,-4.3177,-4.3247,-4.3304,-4.3332,-4.3388,-4.3425,-4.3421,-4.3439,-4.3436,-4.3441,-4.3334,-4.3314,-4.3441,-4.3441,-4.3441,-4.3441,-4.3441,-4.3441,-4.2861,-4.2939,-4.2949,-4.3042,-4.3067,-4.3132,-4.3158,-4.3193,-4.3224,-4.3303,-4.335,-4.3367,-4.3401,-4.346,-4.3511,-4.3517,-4.3538,-4.3559,-4.3562,-4.3462,-4.3449,-4.3436,-4.3417,-4.3563,-4.3564,-4.3664,-4.3665,-4.3666]},{"header":{"parameterUnit":"m.s-1","parameterCategory":1,"la1":30.2991,"la2":30.254,"lo1":-89.0895,"lo2":-89.0444,"dy":0.0017,"dx":0.0017,"nx":28,"ny":28,"refTime":"2025-06-02T09:00:00:Z","depth":0,"parameterNumber":3,"parameterNumberName":"V-component_of_WINDS"},"data":[0,0,0,0,0,0,0,0,0,0,0,0,0,0,0,0,0,0,0,0,0,0,0,0,0,0,0,0,0,0,0,0,0,0,0,0,0,0,0,0,0,0,0,0,0,0,0,0,0,0,0,0,0,0,0,0,0,0,4.0674,4.0675,0,4.0714,4.0715,4.0715,4.0647,4.0645,4.0643,4.064,4.0677,4.068,4.0684,0,0,0,0,0,0,0,0,0,0,0,0,0,4.0535,4.0538,4.0674,4.0675,4.0675,4.0714,4.0715,4.0715,4.0648,4.0645,4.0642,4.0639,4.0676,4.068,4.0684,0,0,0,0,0,0,0,0,0,0,0,0,0,4.0587,4.0539,4.0674,4.0646,4.0644,4.0714,4.0715,4.0715,4.0648,4.0645,4.0641,4.0638,4.0675,4.068,4.0684,4.0782,0,0,4.0699,4.0701,0,0,0,0,0,0,0,0,4.0584,4.0592,4.065,4.0648,4.0646,4.0672,4.0679,4.0738,4.0649,4.0647,4.064,4.0636,4.0678,4.0682,4.0697,4.0784,4.0785,4.0699,4.0702,4.0704,4.0705,0,0,0,0,0,0,0,4.0581,4.059,4.069,4.0651,4.0648,4.063,4.0634,4.069,4.0681,4.0647,4.0642,4.0648,4.0676,4.0693,4.0698,4.0786,4.0699,4.0703,4.0706,4.0708,4.0954,4.0957,0,0,0,0,0,0,4.0581,4.0588,4.0689,4.0691,4.0606,4.0636,4.064,4.0667,4.068,4.0679,4.0651,4.0644,4.0687,4.0692,4.0699,4.0813,4.0704,4.0708,4.0711,4.095,4.0954,4.0958,0,0,0,0,0,0,4.0579,4.0591,4.0687,4.0638,4.0649,4.0642,4.0673,4.067,4.0686,4.0683,4.0681,4.0669,4.0684,4.0692,4.0762,4.0813,4.071,4.0715,4.0945,4.0951,4.0956,4.1043,0,0,0,0,0,0,4.0575,4.059,4.0628,4.064,4.0652,4.0751,4.0676,4.0673,4.0695,4.0687,4.07,4.0699,4.0682,4.0755,4.0767,4.0818,4.0718,4.0941,4.0948,4.0955,4.1036,4.1051,4.1065,0,0,0,0,0,4.057,4.065,4.0631,4.0643,4.07,4.0754,4.0761,4.0741,4.07,4.0737,4.0735,4.0699,4.0807,4.0763,4.0775,4.0829,4.0937,4.0946,4.0954,4.1029,4.1048,4.1064,0,0,0,0,0,0,4.0644,4.0651,4.0629,4.0716,4.0735,4.0743,4.0789,4.0762,4.0792,4.0783,4.0756,4.0759,4.0834,4.0838,4.079,4.0924,4.0865,4.0876,4.0918,4.0936,4.095,4.0946,4.0722,0,0,0,0,0,4.067,4.0716,4.0719,4.0795,4.0806,4.0796,4.0819,4.0802,4.082,4.0828,4.0831,4.0848,4.0886,4.0911,4.0946,4.1037,4.1038,4.108,4.1094,4.1106,4.1115,4.1163,4.1181,4.0986,4.0986,4.0986,0,0,4.0725,4.0735,4.0765,4.081,4.0823,4.0869,4.0803,4.0855,4.0888,4.0835,4.0901,4.0904,4.0922,4.1003,4.1038,4.1009,4.117,4.1116,4.1126,4.1129,4.1173,4.1192,4.1208,4.0992,4.0991,4.099,0,0,4.0848,4.0861,4.0925,4.094,4.0961,4.0954,4.0969,4.0981,4.0982,4.1048,4.1009,4.1048,4.1114,4.1128,4.1144,4.1273,4.1241,4.1285,4.1359,4.1406,4.1421,4.1435,4.148,4.1496,4.1295,4.1295,4.1295,0,4.0913,4.0982,4.0961,4.1016,4.1036,4.0992,4.1057,4.1071,4.1102,4.1116,4.1083,4.1165,4.1174,4.1257,4.1289,4.1304,4.1319,4.1283,4.1421,4.1434,4.1447,4.1489,4.1506,4.1301,4.13,4.1299,4.1299,0,4.106,4.1109,4.1158,4.119,4.1216,4.1276,4.1263,4.1292,4.1273,4.1269,4.1337,4.1346,4.1382,4.1401,4.1382,4.1481,4.1462,4.1426,4.1366,4.1471,4.151,4.1526,4.1308,4.1306,4.1305,4.1303,0,0,4.1229,4.125,4.1268,4.1282,4.1303,4.1339,4.1396,4.1432,4.1457,4.1479,4.1525,4.1583,4.1549,4.1567,4.155,4.1592,4.1692,4.155,4.155,4.1575,4.18,4.1827,4.1846,4.1672,4.1675,4.1677,4.1799,0,4.135,4.145,4.1433,4.1529,4.1573,4.1532,4.1581,4.1598,4.1597,4.1632,4.163,4.1671,4.1624,4.1635,4.1674,4.1672,4.1737,4.1663,4.1712,4.1714,4.1708,4.1867,4.1895,4.2009,4.1814,4.1817,4.1819,0,4.1505,4.1535,4.1636,4.1649,4.1667,4.1712,4.1743,4.1779,4.1797,4.1792,4.1814,4.1789,4.1844,4.1785,4.186,4.181,4.1829,4.1832,4.1836,4.1838,4.1772,4.1872,4.2045,4.2062,4.1843,4.1841,4.1839,0,4.1617,4.1682,4.1751,4.1764,4.1782,4.1814,4.1822,4.1837,4.186,4.1888,4.1902,4.1935,4.1953,4.1979,4.1964,4.1922,4.2041,4.1981,4.2038,4.2038,4.2063,4.2062,4.224,4.2079,4.2078,4.2078,4.2078,0,4.1753,4.1816,4.1801,4.1843,4.1912,4.1892,4.196,4.1964,4.1978,4.2018,4.1985,4.2024,4.2002,4.2039,4.2027,4.2091,4.2099,4.2096,4.2092,4.2099,4.2099,4.211,4.2101,4.2083,4.2082,4.2081,4.208,0,4.1889,4.1882,4.1953,4.1965,4.1969,4.2019,4.2028,4.2067,4.2063,4.2115,4.2126,4.212,4.2162,4.215,4.2194,4.2186,4.2266,4.2253,4.2261,4.2257,4.2314,4.2309,4.2505,4.2529,4.2353,4.2355,4.2356,0,4.1976,4.2023,4.204,4.2066,4.2078,4.2119,4.2143,4.2125,4.2151,4.2176,4.2211,4.225,4.228,4.2349,4.2347,4.2381,4.2367,4.2434,4.2372,4.2377,4.2367,4.2364,4.2368,4.2446,4.2448,4.2449,4.2451,0,4.213,4.2125,4.2161,4.2196,4.2225,4.2252,4.2275,4.2297,4.2281,4.2312,4.2355,4.2378,4.2425,4.2464,4.2495,4.2502,4.2474,4.2471,4.2485,4.2491,4.2494,4.2492,4.2293,4.2466,4.2464,4.2463,4.2462,4.2462,4.2243,4.2283,4.2302,4.2343,4.2359,4.2381,4.2418,4.242,4.2456,4.2493,4.248,4.253,4.2546,4.2585,4.2597,4.2634,4.2608,4.263,4.2635,4.2641,4.2647,4.2489,4.264,4.2639,4.2639,4.2638,4.2638,0,4.2395,4.2405,4.2443,4.2477,4.251,4.2482,4.2506,4.2535,4.2579,4.2597,4.2628,4.2678,4.2715,4.2718,4.2753,4.2782,4.277,4.2792,4.2789,4.279,4.2669,4.2652,4.2801,4.2801,4.2801,4.2801,4.2801,4.2801,4.2477,4.2544,4.2541,4.2614,4.2623,4.2672,4.2688,4.2709,4.2724,4.2781,4.2812,4.2814,4.2826,4.2862,4.2895,4.2894,4.2908,4.2935,4.2929,4.2815,4.2799,4.2784,4.2768,4.2938,4.2939,4.3048,4.3049,4.3049]}]]